Weather History for VIAR - March, 2013

Change the Weather History Date:

Friday, March 22, 2013

  Actual Average Record
Temperature  
Mean Temperature 70 °F -  
Max Temperature 84 °F 80 °F 91 °F (2004)
Min Temperature 55 °F 56 °F 48 °F (2012)
Cooling Degree Days 4    
Growing Degree Days 20 (Base 50)    
Moisture  
Dew Point 60 °F    
Average Humidity 74    
Maximum Humidity 100    
Minimum Humidity 39    
Precipitation  
Precipitation 0.00 in - - ()
Sea Level Pressure  
Sea Level Pressure 29.74 in    
Wind  
Wind Speed 2 mph ()    
Max Wind Speed 8 mph    
Max Gust Speed -    
Visibility 3.2 miles    
Events      
Averages and records for this station are not official NWS values.
T = Trace of Precipitation, MM = Missing Value Source: Averaged Metar Reports

Daily Weather History Graph

Daily Weather History Graph

Search for Another Location

Airport or City:

Trip Planner

Search our weather history database for the weather conditions in past years. The results will help you decide how hot, cold, wet, or windy it might be!

Date:

Astronomy

Mar. 22, 2013 Rise Set
Actual Time 6:32 AM IST 6:43 PM IST
Civil Twilight 6:07 AM IST 7:07 PM IST
Nautical Twilight 5:39 AM IST 7:36 PM IST
Astronomical Twilight 5:10 AM IST 8:05 PM IST
Moon 2:00 PM IST (3/22) 2:58 AM IST (3/22)
Length of Visible Light 12h 59m
Length of Day
12h 11m
Waxing Gibbous, 73% of the Moon is Illuminated
Mar 22
Waxing Gibbous
Mar 27
Full
Apr 3
Last Quarter
Apr 10
New
Apr 18
First Quarter

Hourly Weather History & Observations

Time (IST) Temp. Heat Index Dew Point Humidity Pressure Visibility Wind Dir Wind Speed Gust Speed Precip Events Conditions
12:30 AM 62.6 °F - 60.8 °F 94% 29.80 in 3.1 mi Calm Calm - N/A   Partly Cloudy
1:00 AM 62.6 °F - 60.8 °F 94% 29.80 in 3.1 mi Calm Calm - N/A   Partly Cloudy
1:30 AM 60.8 °F - 59.0 °F 94% 29.80 in 2.8 mi Variable 3.5 mph - N/A   Partly Cloudy
2:00 AM 60.8 °F - 59.0 °F 94% 29.80 in 2.8 mi Calm Calm - N/A   Partly Cloudy
2:30 AM 61 °F - 61 °F 99% 29.78 in 2 mi Calm Calm - -   Clear
2:30 AM 60.8 °F - 60.8 °F 100% 29.77 in 2.8 mi Variable 3.5 mph - N/A   Partly Cloudy
3:00 AM 60.8 °F - 59.0 °F 94% 29.77 in 2.8 mi Calm Calm - N/A   Partly Cloudy
3:30 AM 59.0 °F - 59.0 °F 100% 29.74 in 2.8 mi Calm Calm - N/A   Partly Cloudy
4:00 AM 59.0 °F - 59.0 °F 100% 29.74 in 2.8 mi Calm Calm - N/A   Partly Cloudy
4:30 AM - - - N/A% 29.74 in 2.8 mi Calm Calm - N/A   Partly Cloudy
5:00 AM 57.2 °F - 57.2 °F 100% 29.74 in 2.8 mi Calm Calm - N/A   Partly Cloudy
5:30 AM 58 °F - 58 °F 98% 29.73 in 2 mi Calm Calm - -   Clear
5:30 AM 57.2 °F - 57.2 °F 100% 29.74 in 2.8 mi Calm Calm - N/A   Partly Cloudy
6:00 AM 57.2 °F - 57.2 °F 100% 29.71 in 2.8 mi Calm Calm - N/A   Partly Cloudy
6:30 AM 55.4 °F - 55.4 °F 100% 29.74 in 3.1 mi Calm Calm - N/A   Partly Cloudy
7:00 AM 57.2 °F - 55.4 °F 94% 29.74 in 3.1 mi Calm Calm - N/A   Scattered Clouds
7:30 AM 59.0 °F - 55.4 °F 88% 29.74 in 3.1 mi Calm Calm - N/A   Scattered Clouds
8:00 AM 60.8 °F - 57.2 °F 88% 29.77 in 3.1 mi Calm Calm - N/A   Scattered Clouds
8:30 AM 64 °F - 58 °F 77% 29.75 in 2 mi Calm Calm - -   Mist
8:30 AM 64.4 °F - 57.2 °F 77% 29.77 in 3.1 mi Calm Calm - N/A   Scattered Clouds
9:00 AM 68.0 °F - 60.8 °F 78% 29.77 in 3.1 mi NW 4.6 mph - N/A   Scattered Clouds
9:30 AM 71.6 °F - 60.8 °F 69% 29.77 in 3.1 mi WNW 6.9 mph - N/A   Haze
10:00 AM 73.4 °F - 64.4 °F 73% 29.77 in 3.1 mi WNW 5.8 mph - N/A   Haze
10:30 AM 75.2 °F - 62.6 °F 65% 29.77 in 3.7 mi NW 8.1 mph - N/A   Scattered Clouds
11:00 AM 75.2 °F - 62.6 °F 65% 29.77 in 3.7 mi WNW 6.9 mph - N/A   Scattered Clouds
11:30 AM 77.0 °F - 62.6 °F 61% 29.77 in 3.7 mi NW 5.8 mph - N/A   Mostly Cloudy
12:00 PM 78.8 °F - 62.6 °F 57% 29.77 in 3.7 mi West 6.9 mph - N/A   Mostly Cloudy
12:30 PM 78.8 °F - 62.6 °F 57% 29.77 in 3.7 mi West 6.9 mph - N/A   Mostly Cloudy
1:00 PM 80.6 °F 81.8 °F 62.6 °F 54% 29.74 in 3.7 mi West 6.9 mph - N/A   Mostly Cloudy
1:30 PM 80.6 °F 81.8 °F 62.6 °F 54% 29.74 in 3.7 mi WNW 5.8 mph - N/A   Mostly Cloudy
2:00 PM 80.6 °F 81.8 °F 62.6 °F 54% 29.74 in 3.7 mi West 5.8 mph - N/A   Mostly Cloudy
2:30 PM 83 °F - 62 °F 39% 29.69 in 2 mi WSW 5.8 mph - -   Partly Cloudy
2:30 PM 82.4 °F 83.4 °F 62.6 °F 51% 29.71 in 3.7 mi WSW 5.8 mph - N/A   Mostly Cloudy
3:00 PM 82.4 °F 82.9 °F 60.8 °F 48% 29.71 in 3.7 mi West 6.9 mph - N/A   Mostly Cloudy
3:30 PM 82.4 °F 82.9 °F 60.8 °F 48% 29.71 in 3.7 mi West 8.1 mph - N/A   Mostly Cloudy
4:00 PM 82.4 °F 83.4 °F 62.6 °F 51% 29.71 in 3.7 mi WNW 6.9 mph - N/A   Mostly Cloudy
5:30 PM 80 °F - 63 °F 47% 29.65 in 2 mi 2.3 mph - -   Partly Cloudy
5:30 PM 80.6 °F 81.8 °F 62.6 °F 54% 29.68 in 3.7 mi Variable 2.3 mph - N/A   Mostly Cloudy
6:00 PM 77.0 °F - 62.6 °F 61% 29.68 in 3.7 mi Variable 3.5 mph - N/A   Mostly Cloudy
6:30 PM 77.0 °F - 62.6 °F 61% 29.68 in 3.7 mi Calm Calm - N/A   Mostly Cloudy
7:00 PM 75.2 °F - 62.6 °F 65% 29.68 in 3.7 mi SW 5.8 mph - N/A   Mostly Cloudy
7:30 PM 75.2 °F - 62.6 °F 65% 29.71 in 3.7 mi SSW 5.8 mph - N/A   Mostly Cloudy
8:00 PM 73.4 °F - 62.6 °F 69% 29.71 in 3.7 mi SSW 5.8 mph - N/A   Mostly Cloudy
8:30 PM 72 °F - 61 °F 60% 29.69 in 2 mi Calm Calm - -   Partly Cloudy
8:30 PM 71.6 °F - 60.8 °F 69% 29.71 in 3.7 mi Calm Calm - N/A   Mostly Cloudy
9:00 PM 71.6 °F - 60.8 °F 69% 29.71 in 3.7 mi Calm Calm - N/A   Mostly Cloudy
9:30 PM 69.8 °F - 60.8 °F 73% 29.71 in 3.7 mi Calm Calm - N/A   Mostly Cloudy
10:00 PM 69.8 °F - 60.8 °F 73% 29.74 in 3.7 mi Calm Calm - N/A   Mostly Cloudy
11:00 PM 69.8 °F - 60.8 °F 73% 29.74 in 3.7 mi Calm Calm - N/A   Mostly Cloudy
11:30 PM 68 °F - 59 °F 66% 29.73 in 2 mi Calm Calm - -   Haze
11:30 PM 69.8 °F - 59.0 °F 68% 29.74 in 3.1 mi Calm Calm - N/A   Haze